Andalusia, AL

12:54 AM CST on February 08, 2016 (GMT -0600)
Andalusia

Weather History for K79J - May, 2013

Change the Weather History Date:

Tuesday, May 21, 2013

  Actual Average (KCEW) Record (KCEW)
Temperature  
Mean Temperature 79 °F -  
Max Temperature 89 °F 85 °F 95 °F (2011)
Min Temperature 69 °F 62 °F 44 °F (2002)
Cooling Degree Days 14    
Growing Degree Days 29 (Base 50)    
Moisture  
Dew Point 66 °F    
Average Humidity 73    
Maximum Humidity 94    
Minimum Humidity 45    
Precipitation  
Precipitation 0.00 in - - ()
Sea Level Pressure  
Sea Level Pressure 29.98 in    
Wind  
Wind Speed 1 mph (South)    
Max Wind Speed 7 mph    
Max Gust Speed -    
Visibility 6 miles    
Events Fog    
Averages and records for this station are not official NWS values.
T = Trace of Precipitation, MM = Missing Value Source: NWS Daily Summary

Daily Weather History Graph

Daily Weather History Graph

Search for Another Location

Airport or City:

Trip Planner

Search our weather history database for the weather conditions in past years. The results will help you decide how hot, cold, wet, or windy it might be!

Date:

Astronomy

May. 21, 2013 Rise Set
Actual Time 5:45 AM CDT 7:38 PM CDT
Civil Twilight 5:19 AM CDT 8:05 PM CDT
Nautical Twilight 4:46 AM CDT 8:38 PM CDT
Astronomical Twilight 4:11 AM CDT 9:13 PM CDT
Moon 4:04 PM CDT (5/21) 2:58 AM CDT (5/21)
Length of Visible Light 14h 46m
Length of Day
13h 52m
Waxing Gibbous, 84% of the Moon is Illuminated
May 21
Waxing Gibbous
May 24
Full
May 31
Last Quarter
Jun 8
New
Jun 16
First Quarter

Hourly Weather History & Observations

Time (CDT) Temp. Heat Index Dew Point Humidity Pressure Visibility Wind Dir Wind Speed Gust Speed Precip Events Conditions
12:56 AM 72.0 °F - 66.0 °F 81% 29.99 in 10.0 mi WSW 3.5 mph - N/A   Clear
1:56 AM 71.1 °F - 66.0 °F 84% 29.98 in 9.0 mi Calm Calm - N/A   Clear
2:56 AM 70.0 °F - 66.0 °F 87% 29.96 in 7.0 mi Calm Calm - N/A   Clear
3:37 AM 69.8 °F - 64.4 °F 83% 29.98 in 7.0 mi Calm Calm - N/A   Scattered Clouds
3:46 AM 69.8 °F - 64.4 °F 83% 29.98 in 7.0 mi Calm Calm - N/A   Mostly Cloudy
3:56 AM 70.0 °F - 66.0 °F 87% 29.97 in 5.0 mi Calm Calm - N/A   Overcast
4:00 AM 71.6 °F - 66.2 °F 83% 29.98 in 1.8 mi Calm Calm - N/A   Overcast
4:03 AM 71.6 °F - 66.2 °F 83% 29.98 in 1.0 mi Calm Calm - N/A   Overcast
4:10 AM 71.6 °F - 66.2 °F 83% 29.98 in 0.2 mi Calm Calm - N/A Fog Fog
4:56 AM 71.1 °F - 68.0 °F 90% 29.98 in 0.2 mi Calm Calm - N/A Fog Fog
5:56 AM 71.1 °F - 68.0 °F 90% 29.99 in 0.2 mi Calm Calm - N/A Fog Fog
6:56 AM 72.0 °F - 68.0 °F 87% 30.01 in 0.2 mi Calm Calm - N/A Fog Fog
7:56 AM 72.0 °F - 69.1 °F 91% 30.02 in 0.2 mi Calm Calm - N/A Fog Fog
8:09 AM 71.6 °F - 69.8 °F 94% 30.04 in 0.5 mi Calm Calm - N/A Fog Fog
8:23 AM 71.6 °F - 69.8 °F 94% 30.05 in 1.2 mi Calm Calm - N/A   Overcast
8:27 AM 71.6 °F - 69.8 °F 94% 30.04 in 2.0 mi Calm Calm - N/A   Overcast
8:37 AM 71.6 °F - 69.8 °F 94% 30.04 in 4.0 mi Calm Calm - N/A   Overcast
8:51 AM 73.4 °F - 69.8 °F 88% 30.04 in 5.0 mi Calm Calm - N/A   Overcast
8:56 AM 73.0 °F - 69.1 °F 87% 30.03 in 5.0 mi SE 3.5 mph - N/A   Overcast
9:30 AM 75.2 °F - 68.0 °F 78% 30.05 in 10.0 mi Calm Calm - N/A   Mostly Cloudy
9:48 AM 78.8 °F - 68.0 °F 69% 30.05 in 10.0 mi Calm Calm - N/A   Scattered Clouds
9:56 AM 79.0 °F - 66.9 °F 66% 30.04 in 10.0 mi Calm Calm - N/A   Partly Cloudy
10:56 AM 82.0 °F 84.1 °F 66.0 °F 58% 30.02 in 9.0 mi Variable 3.5 mph - N/A   Clear
11:56 AM 84.9 °F 86.6 °F 64.9 °F 51% 30.01 in 10.0 mi ESE 5.8 mph - N/A   Clear
12:56 PM 87.1 °F 88.3 °F 64.0 °F 46% 29.99 in 10.0 mi Variable 4.6 mph - N/A   Clear
1:56 PM 89.1 °F 91.0 °F 64.9 °F 45% 29.97 in 10.0 mi SE 3.5 mph - N/A   Partly Cloudy
2:56 PM 88.0 °F 89.6 °F 64.9 °F 46% 29.94 in 10.0 mi SSE 5.8 mph - N/A   Clear
3:56 PM 89.1 °F 91.3 °F 66.0 °F 46% 29.92 in 10.0 mi Calm Calm - N/A   Partly Cloudy
4:56 PM 89.1 °F 91.3 °F 66.0 °F 46% 29.90 in 10.0 mi South 5.8 mph - N/A   Clear
5:56 PM 89.1 °F 92.1 °F 66.9 °F 48% 29.88 in 10.0 mi South 6.9 mph - N/A   Mostly Cloudy
6:56 PM 86.0 °F 87.3 °F 64.0 °F 48% 29.88 in 10.0 mi SW 5.8 mph - N/A   Partly Cloudy
7:56 PM 82.0 °F 82.7 °F 61.0 °F 49% 29.89 in 10.0 mi SW 5.8 mph - N/A   Clear
8:56 PM 79.0 °F - 62.1 °F 56% 29.91 in 10.0 mi Calm Calm - N/A   Clear
9:56 PM 77.0 °F - 64.0 °F 64% 29.94 in 10.0 mi SW 4.6 mph - N/A   Clear
10:56 PM 73.9 °F - 64.9 °F 73% 29.96 in 10.0 mi Calm Calm - N/A   Clear
11:56 PM 71.1 °F - 64.9 °F 81% 29.96 in 10.0 mi Calm Calm - N/A   Clear